Regional Weather Roundup
Issued by NWS Jackson, KY

Home | Current Version | Previous Version | Text Only | Print | Product List | Glossary On
Versions: 1 2 3 4 5 6 7 8 9 10 11 12 13 14 15 16 17 18 19 20 21 22 23 24 25 26 27 28 29 30 31 32 33 34 35 36 37 38 39 40 41 42 43 44 45 46 47 48 49 50
000
ASUS43 KJKL 260019
RWRJKL

EAST KENTUCKY HOURLY WEATHER ROUNDUP
NATIONAL WEATHER SERVICE JACKSON KY
800 PM EDT SAT OCT 25 2014

NOTE: "FAIR" INDICATES FEW OR NO CLOUDS BELOW 12,000 FEET WITH
NO SIGNIFICANT WEATHER AND/OR OBSTRUCTIONS TO VISIBILITY.

* THESE REPORTS ARE NOT UNDER NWS QUALITY CONTROL AND MAY NOT
  REPORT WEATHER SUCH AS PRECIPITATION AND FOG.

KYZ079-080-083-085-087-088-110-112-115-119-120-260100
...EASTERN KENTUCKY...

CITY           SKY/WX    TMP DP  RH WIND       PRES   REMARKS
JACKSON        CLEAR     61  52  72 CALM      29.99R
6HR MIN TEMP:  61; 6HR MAX TEMP:  69;

LONDON         CLEAR     65  54  67 SW5       30.01R
6HR MIN TEMP:  60; 6HR MAX TEMP:  70;

SOMERSET*      CLEAR     61  54  77 CALM      30.02S
MONTICELLO*    CLEAR     53  50  90 CALM      30.03R
6HR MIN TEMP:  53; 6HR MAX TEMP:  73;

MIDDLESBORO*   PTCLDY    56  52  86 CALM      30.02S
6HR MIN TEMP:  56; 6HR MAX TEMP:  69;

HARLAN APT*    CLEAR     59  50  72 CALM      30.03R
BLACK MTN*       N/A     54  52  94 SW1         N/A
PIKEVILLE APT* CLEAR     61  52  72 SW3       29.98R
BIG SANDY*     CLEAR     63  53  71 SW6       29.97S
6HR MIN TEMP:  61; 6HR MAX TEMP:  67;

MOREHEAD APT*  CLEAR     64  57  77 SW8       29.98R
ASHLAND*       CLEAR     57  52  82 CALM      29.89F
$$

KYZ035-036-041-042-044-050-067-078-099-260100
...CENTRAL KENTUCKY...

CITY           SKY/WX    TMP DP  RH WIND       PRES   REMARKS
MT STERLING*   CLEAR     63  59  88 W8        29.98S
FLEMING/MASON* CLEAR     61  57  88 SW6       29.95S
DANVILLE*      CLEAR     61  55  82 SW5       30.01R
RICHMOND*      CLEAR     64  55  72 SW5       29.99R
LEXINGTON      CLEAR     64  56  75 SW7       29.97F
6HR MIN TEMP:  64; 6HR MAX TEMP:  74;

FRANKFORT      CLEAR     62  56  80 SW5       29.95F
6HR MIN TEMP:  62; 6HR MAX TEMP:  73;

$$

KYZ091>093-OHZ055-061-077-WVZ005-015-034-035-042-260100
...SOUTHERN OHIO/WEST VIRGINIA...

CITY           SKY/WX    TMP DP  RH WIND       PRES   REMARKS
COVINGTON      PTCLDY    67  51  56 SW6       29.92S
COLUMBUS       CLEAR     62  47  57 W8        29.83S
DAYTON         CLEAR     65  45  48 NW9       29.90R
WILMINGTON     CLEAR     63  52  67 SW12      29.89S
HUNTINGTON     CLEAR     62  54  74 SW5       29.92S
CHARLESTON     CLEAR     61  49  64 SW8       29.92R
PINEVILLE*     CLOUDY    56  53  89 MISG      30.02R
BECKLEY        CLEAR     56  45  66 W9        29.97R
BLUEFIELD      PTCLDY    59  45  59 W10       29.99R
$$

VAZ002-007-008-TNZ017-027-036-066-071-260100
...SOUTHWEST VIRGINIA/EAST TENNESSEE...

CITY           SKY/WX    TMP DP  RH WIND       PRES   REMARKS
WISE*          CLEAR     55  45  67 W8        30.04R
JONESVILLE*    PTCLDY    57  50  77 CALM      30.04S
ABINGDON*      PTCLDY    58  48  67 CALM      30.02S
BRISTOL        CLOUDY    62  49  62 S3        30.02R
KNOXVILLE      CLEAR     63  49  60 SW5       30.02R
OAK RIDGE      CLEAR     62  53  72 CALM      30.03S
CROSSVILLE     CLEAR     59  55  87 CALM      30.06R
NASHVILLE      PTCLDY    70  61  73 NW3       30.02R
$$

...KEY TO REMARKS...
VSB - VISIBILITY IN MILES
WCI - WIND CHILL INDEX
HX  - HEAT INDEX

$$



USA.gov is the U.S. government's official web portal to all federal, state and local government web resources and services.